TIANLIAN 2-03

Last updated on Tue Sep 22 2026 00:03:15 GMT+0000 (Coordinated Universal Time)

1 53100U 22078A 26264.34867005 .00000068 00000+0 00000+0 0 9993 2 53100 0.9110 77.7975 0001731 149.2972 269.2297 1.00272444 15513
UTC large
Height (km)
Speed (km/s)
/
Latitude / Longitude
Inclination (degrees)
Orbital Period (minutes)
Azimuth
Elevation
Range (km)
Doppler Factor

Next 0 passes for location: London (51.5072 / 0.1276)

No passes found over London.
TIANLIAN 2-03